Minot Air Force Base, ND

10:31 PM CST on February 10, 2016 (GMT -0600)
Minot Air Force Base

Weather History for KMIB - April, 2013

Change the Weather History Date:

Sunday, April 7, 2013

  Actual Average Record
Temperature  
Mean Temperature 32 °F -  
Max Temperature 34 °F 44 °F 78 °F (2005)
Min Temperature 29 °F 25 °F 2 °F (2007)
Degree Days  
Heating Degree Days 34    
Moisture  
Dew Point 31 °F    
Average Humidity 97    
Maximum Humidity 100    
Minimum Humidity 86    
Precipitation  
Precipitation 0.01 in - - ()
Sea Level Pressure  
Sea Level Pressure 29.82 in    
Wind  
Wind Speed 8 mph (SE)    
Max Wind Speed 17 mph    
Max Gust Speed -    
Visibility 6 miles    
Events Snow    
Averages and records for this station are not official NWS values.
T = Trace of Precipitation, MM = Missing Value Source: NWS Daily Summary

Daily Weather History Graph

Daily Weather History Graph

Search for Another Location

Airport or City:

Trip Planner

Search our weather history database for the weather conditions in past years. The results will help you decide how hot, cold, wet, or windy it might be!

Date:

Astronomy

Apr. 07, 2013 Rise Set
Actual Time 7:10 AM CDT 8:25 PM CDT
Civil Twilight 6:38 AM CDT 8:57 PM CDT
Nautical Twilight 5:59 AM CDT 9:36 PM CDT
Astronomical Twilight 5:18 AM CDT 10:18 PM CDT
Moon 5:41 AM CDT (4/7) 5:49 PM CDT (4/7)
Length of Visible Light 14h 19m
Length of Day
13h 14m
Waning Crescent, 8% of the Moon is Illuminated
Apr 7
Waning Crescent
Apr 10
New
Apr 18
First Quarter
Apr 25
Full
May 2
Last Quarter

Hourly Weather History & Observations

Time (CDT) Temp. Windchill Dew Point Humidity Pressure Visibility Wind Dir Wind Speed Gust Speed Precip Events Conditions
12:55 AM 30.6 °F - 27.1 °F 87% 29.91 in 10.0 mi Calm Calm - N/A   Overcast
1:55 AM 30.4 °F - 27.0 °F 87% 29.92 in 10.0 mi Calm Calm - N/A   Overcast
2:03 AM 30.2 °F - 26.6 °F 86% 29.92 in 10.0 mi Calm Calm - N/A   Overcast
2:55 AM 30.2 °F 26.7 °F 27.5 °F 90% 29.91 in 10.0 mi SE 3.5 mph - N/A   Overcast
3:55 AM 29.8 °F 24.9 °F 28.2 °F 94% 29.89 in 10.0 mi SE 4.6 mph - N/A   Overcast
4:55 AM 29.7 °F 24.7 °F 28.4 °F 95% 29.87 in 10.0 mi SE 4.6 mph - N/A   Overcast
5:29 AM 30.2 °F 25.4 °F 28.4 °F 93% 29.88 in 10.0 mi SSE 4.6 mph - N/A   Overcast
5:50 AM 30.2 °F 24.3 °F 28.4 °F 93% 29.87 in 10.0 mi SE 5.8 mph - N/A   Overcast
5:55 AM 29.7 °F 23.7 °F 28.6 °F 96% 29.87 in 10.0 mi SE 5.8 mph - N/A   Overcast
6:31 AM 30.2 °F 26.7 °F 28.4 °F 93% 29.89 in 10.0 mi South 3.5 mph - N/A   Overcast
6:55 AM 29.7 °F 24.7 °F 29.1 °F 98% 29.89 in 10.0 mi SSE 4.6 mph - N/A   Overcast
7:55 AM 29.8 °F 20.9 °F 29.7 °F 99% 29.85 in 7.0 mi ESE 10.4 mph - N/A   Overcast
8:31 AM 30.2 °F 20.8 °F 30.2 °F 100% 29.84 in 2.5 mi SSE 11.5 mph - N/A   Overcast
8:34 AM 30.2 °F 20.2 °F 30.2 °F 100% 29.84 in 1.8 mi SSE 12.7 mph - N/A Snow Light Snow
8:35 AM 30.2 °F 20.2 °F 30.2 °F 100% 29.84 in 1.5 mi SSE 12.7 mph - N/A Snow Light Snow
8:37 AM 30.2 °F 20.8 °F 30.2 °F 100% 29.84 in 1.2 mi SSE 11.5 mph - N/A Snow Light Snow
8:42 AM 30.2 °F 21.3 °F 30.2 °F 100% 29.84 in 1.0 mi SSE 10.4 mph - N/A Snow Light Snow
8:46 AM 30.2 °F 20.8 °F 30.2 °F 100% 29.84 in 0.8 mi SSE 11.5 mph - N/A Snow Light Snow
8:49 AM 30.2 °F 20.8 °F 30.2 °F 100% 29.84 in 0.8 mi SSE 11.5 mph - N/A Snow Light Snow
8:50 AM 30.2 °F 21.3 °F 30.2 °F 100% 29.83 in 0.8 mi SSE 10.4 mph - N/A Snow Light Snow
8:52 AM 30.2 °F 20.8 °F 30.2 °F 100% 29.83 in 0.8 mi SSE 11.5 mph - N/A Snow Light Snow
8:53 AM 30.2 °F 20.8 °F 30.2 °F 100% 29.83 in 0.8 mi SE 11.5 mph - N/A Snow Light Snow
8:54 AM 30.2 °F 20.8 °F 30.2 °F 100% 29.83 in 0.8 mi SE 11.5 mph - N/A Snow Light Snow
8:55 AM 30.2 °F 20.8 °F 30.0 °F 99% 29.83 in 0.8 mi SE 11.5 mph - 0.00 in Snow Light Snow
8:57 AM 30.2 °F 21.3 °F 30.2 °F 100% 29.83 in 1.0 mi SE 10.4 mph - N/A Snow Light Snow
9:00 AM 30.2 °F 21.3 °F 30.2 °F 100% 29.83 in 1.2 mi SE 10.4 mph - N/A Snow Light Snow
9:03 AM 30.2 °F 20.2 °F 30.2 °F 100% 29.83 in 1.5 mi SE 12.7 mph - N/A Snow Light Snow
9:05 AM 30.2 °F 20.2 °F 30.2 °F 100% 29.83 in 1.5 mi SE 12.7 mph - N/A Snow Light Snow
9:11 AM 30.2 °F 20.8 °F 30.2 °F 100% 29.83 in 2.0 mi SE 11.5 mph - N/A   Overcast
9:19 AM 30.2 °F 20.2 °F 30.2 °F 100% 29.81 in 2.5 mi SE 12.7 mph - N/A   Overcast
9:24 AM 30.2 °F 20.2 °F 30.2 °F 100% 29.81 in 1.8 mi SE 12.7 mph - N/A   Overcast
9:29 AM 30.2 °F 19.8 °F 30.2 °F 100% 29.80 in 1.2 mi SE 13.8 mph - N/A   Overcast
9:30 AM 30.2 °F 20.2 °F 30.2 °F 100% 29.80 in 1.5 mi SE 12.7 mph - N/A   Overcast
9:33 AM 30.2 °F 19.8 °F 30.2 °F 100% 29.80 in 1.5 mi SE 13.8 mph - N/A   Overcast
9:35 AM 30.2 °F 19.8 °F 30.2 °F 100% 29.80 in 2.0 mi SE 13.8 mph - N/A   Overcast
9:37 AM 30.2 °F 20.2 °F 30.2 °F 100% 29.80 in 2.5 mi SE 12.7 mph - N/A   Overcast
9:39 AM 30.2 °F 20.2 °F 30.2 °F 100% 29.80 in 3.0 mi SE 12.7 mph - N/A   Overcast
9:49 AM 32.0 °F 23.0 °F 30.2 °F 93% 29.81 in 2.5 mi SE 11.5 mph - N/A   Overcast
9:59 AM 32.0 °F 23.0 °F 30.2 °F 93% 29.81 in 3.0 mi SSE 11.5 mph - N/A   Overcast
10:47 AM 32.0 °F 22.5 °F 32.0 °F 100% 29.78 in 7.0 mi SE 12.7 mph - N/A   Overcast
10:55 AM 32.2 °F 23.2 °F 32.0 °F 99% 29.78 in 7.0 mi SE 11.5 mph - 0.00 in   Overcast
11:55 AM 32.9 °F 24.1 °F 32.4 °F 98% 29.78 in 7.0 mi SE 11.5 mph - N/A   Overcast
12:02 PM 33.8 °F 25.3 °F 32.0 °F 93% 29.78 in 7.0 mi SE 11.5 mph - N/A   Overcast
12:11 PM 33.8 °F 25.8 °F 32.0 °F 93% 29.78 in 7.0 mi SE 10.4 mph - N/A   Overcast
12:54 PM 33.8 °F 25.3 °F 32.0 °F 93% 29.77 in 8.0 mi SE 11.5 mph - N/A   Overcast
12:55 PM 33.6 °F 25.0 °F 32.5 °F 96% 29.78 in 8.0 mi SE 11.5 mph - N/A   Overcast
1:55 PM 33.6 °F 25.0 °F 32.5 °F 96% 29.76 in 9.0 mi SE 11.5 mph - N/A   Overcast
2:55 PM 33.8 °F 24.8 °F 33.1 °F 97% 29.75 in 9.0 mi SE 12.7 mph - N/A   Overcast
3:55 PM 34.2 °F 24.8 °F 32.9 °F 95% 29.74 in 10.0 mi SE 13.8 mph - N/A   Overcast
4:55 PM 34.5 °F 25.7 °F 32.9 °F 94% 29.73 in 10.0 mi ESE 12.7 mph - N/A   Overcast
5:14 PM 33.8 °F 23.9 °F 32.0 °F 93% 29.73 in 10.0 mi SE 15.0 mph - N/A   Overcast
5:55 PM 34.3 °F 24.2 °F 32.5 °F 93% 29.73 in 10.0 mi SE 16.1 mph - N/A   Overcast
6:55 PM 33.8 °F 23.5 °F 32.2 °F 94% 29.75 in 10.0 mi SE 16.1 mph - N/A   Overcast
7:22 PM 33.8 °F 23.2 °F 32.0 °F 93% 29.75 in 10.0 mi SE 17.3 mph - N/A   Overcast
7:55 PM 32.9 °F 23.2 °F 32.2 °F 97% 29.75 in 10.0 mi SE 13.8 mph - N/A   Overcast
8:09 PM 33.8 °F 23.9 °F 32.0 °F 93% 29.76 in 10.0 mi SE 15.0 mph - N/A   Overcast
8:55 PM 32.7 °F 23.4 °F 32.2 °F 98% 29.76 in 10.0 mi SE 12.7 mph - N/A   Overcast
9:06 PM 32.0 °F 21.6 °F 32.0 °F 100% 29.77 in 10.0 mi ESE 15.0 mph - N/A   Overcast
10:47 PM 32.0 °F 24.8 °F 32.0 °F 100% 29.80 in 10.0 mi ESE 8.1 mph - N/A   Overcast
10:55 PM 32.4 °F 24.0 °F 32.2 °F 99% 29.81 in 10.0 mi East 10.4 mph - N/A   Overcast
11:39 PM 32.0 °F 23.0 °F 32.0 °F 100% 29.82 in 10.0 mi ESE 11.5 mph - N/A   Overcast
11:55 PM 32.0 °F 22.1 °F 31.8 °F 99% 29.82 in 10.0 mi ESE 13.8 mph - N/A   Overcast